contact:dominique.lefevre@mio.osupytheas.fr, maurice.libes@osupytheas.fr, didier.mallarino@osupytheas.fr
Project:EMSO http://www.emso-fr.org/EMSO-France
Depth: 2436.0 m
Title:EMSO Ligure Ouest : Data MII capteur AQUADOPP
Date,Latitude,Longitude,X_East,Y_North,Z_Up,Amplitude_X,Amplitude_Y,Amplitude_Z,Batterie,SoundSpeed,Heading,Pitch,Roll,Pressure,TIS,Speed,Direction
, degrees North, degrees East, m.s-1, m.s-1,m.s-1, 1, 1, 1, Volt, m.s-1, degree, degree, degree, dbar, degree_C, m.s-1, degree
2020-09-20T00:04:03,42.805,6.029,0.054,-0.04,0.019,106.0,107.0,104.0,13.3,1505.3,326.1,-0.7,1.8,2470.464,13.31,0.067,126.5
2020-09-20T00:07:02,42.805,6.029,0.034,-0.042,-0.037,106.0,108.0,103.0,13.4,1505.3,326.0,-0.7,1.8,2470.467,13.31,0.054,141.0
2020-09-20T00:10:03,42.805,6.029,0.033,-0.043,-0.012,105.0,108.0,103.0,13.4,1505.3,324.5,-0.7,1.8,2470.492,13.32,0.054,142.5
2020-09-20T00:13:02,42.805,6.029,0.025,-0.018,-0.019,106.0,107.0,103.0,13.4,1505.3,324.5,-0.7,1.8,2470.404,13.32,0.03,125.8
2020-09-20T00:16:02,42.805,6.029,0.03,-0.018,0.005,106.0,109.0,104.0,13.4,1505.3,324.5,-0.7,1.8,2470.439,13.32,0.034,121.0
2020-09-20T00:19:02,42.805,6.029,0.026,-0.026,0.013,107.0,107.0,103.0,13.3,1505.3,328.0,-0.7,1.8,2470.412,13.32,0.036,135.0
2020-09-20T00:22:02,42.805,6.029,0.017,-0.011,-0.018,107.0,107.0,104.0,13.4,1505.3,323.7,-0.7,1.8,2470.451,13.32,0.02,122.9
2020-09-20T00:25:02,42.805,6.029,0.026,-0.017,-0.015,106.0,106.0,103.0,13.4,1505.3,324.3,-0.7,1.8,2470.402,13.32,0.031,123.2
2020-09-20T00:28:02,42.805,6.029,0.028,-0.036,-0.001,107.0,108.0,103.0,13.4,1505.3,325.9,-0.7,1.8,2470.435,13.32,0.045,142.1
2020-09-20T00:31:02,42.805,6.029,0.017,-0.033,-0.007,106.0,106.0,104.0,13.4,1505.3,327.4,-0.7,1.9,2470.369,13.32,0.037,152.7
2020-09-20T00:34:03,42.805,6.029,0.05,-0.031,0.032,106.0,107.0,103.0,13.3,1505.3,324.5,-0.7,1.8,2470.403,13.32,0.058,121.8
2020-09-20T00:37:03,42.805,6.029,0.019,-0.025,-0.011,108.0,108.0,103.0,13.3,1505.3,324.2,-0.7,1.8,2470.398,13.32,0.031,142.8
2020-09-20T00:40:02,42.805,6.029,0.041,-0.031,0.008,107.0,106.0,104.0,13.4,1505.3,328.1,-0.7,1.8,2470.4,13.32,0.051,127.1
2020-09-20T00:43:02,42.805,6.029,0.022,-0.023,0.026,106.0,107.0,103.0,13.3,1505.3,326.3,-0.7,1.8,2470.375,13.32,0.031,136.3
2020-09-20T00:46:02,42.805,6.029,0.02,-0.036,0.002,106.0,108.0,104.0,13.4,1505.3,324.0,-0.7,1.8,2470.34,13.32,0.041,150.9
2020-09-20T00:49:02,42.805,6.029,0.035,-0.029,-0.024,106.0,105.0,103.0,13.4,1505.3,326.1,-0.7,1.8,2470.361,13.32,0.045,129.6
2020-09-20T00:52:02,42.805,6.029,0.051,-0.017,0.008,107.0,107.0,103.0,13.3,1505.3,326.4,-0.7,1.8,2470.356,13.32,0.053,108.4
2020-09-20T00:55:02,42.805,6.029,0.018,-0.049,-0.022,105.0,108.0,104.0,13.4,1505.3,325.0,-0.7,1.8,2470.375,13.32,0.052,159.8
2020-09-20T00:58:02,42.805,6.029,0.056,-0.021,0.003,108.0,107.0,103.0,13.4,1505.3,326.9,-0.7,1.8,2470.394,13.32,0.059,110.6
2020-09-20T01:04:02,42.805,6.029,0.014,-0.025,-0.018,106.0,107.0,104.0,13.4,1505.2,323.6,-0.7,1.8,2470.387,13.3,0.028,150.7
2020-09-20T01:07:03,42.805,6.029,0.035,-0.03,0.019,107.0,108.0,102.0,13.4,1505.3,323.2,-0.8,1.8,2470.402,13.31,0.046,130.6
2020-09-20T01:10:02,42.805,6.029,0.029,-0.022,0.0,107.0,106.0,104.0,13.3,1505.3,328.0,-0.7,1.8,2470.402,13.32,0.036,127.2
2020-09-20T01:13:03,42.805,6.029,0.036,-0.039,0.031,107.0,107.0,103.0,13.3,1505.3,327.2,-0.7,1.9,2470.4,13.32,0.053,137.3
2020-09-20T01:16:05,42.805,6.029,0.026,-0.035,0.003,106.0,106.0,104.0,13.3,1505.3,325.0,-0.7,1.8,2470.368,13.32,0.043,143.4
2020-09-20T01:19:03,42.805,6.029,0.042,-0.028,0.027,107.0,107.0,104.0,13.4,1505.3,327.4,-0.7,1.8,2470.377,13.32,0.05,123.7
2020-09-20T01:22:02,42.805,6.029,0.037,-0.031,0.03,106.0,107.0,104.0,13.3,1505.3,323.3,-0.7,1.8,2470.356,13.32,0.048,130.0
2020-09-20T01:25:03,42.805,6.029,0.035,-0.008,0.03,106.0,108.0,104.0,13.3,1505.3,324.2,-0.7,1.8,2470.384,13.32,0.035,102.9
2020-09-20T01:28:02,42.805,6.029,0.053,-0.044,-0.003,106.0,107.0,104.0,13.4,1505.3,326.4,-0.7,1.8,2470.349,13.32,0.068,129.7
2020-09-20T01:31:02,42.805,6.029,0.024,-0.033,-0.004,107.0,107.0,103.0,13.4,1505.3,324.2,-0.7,1.8,2470.345,13.32,0.04,144.0
2020-09-20T01:34:03,42.805,6.029,0.038,-0.006,0.002,106.0,107.0,102.0,13.4,1505.3,327.0,-0.7,1.8,2470.35,13.32,0.038,99.0
2020-09-20T01:37:02,42.805,6.029,0.055,-0.033,0.017,108.0,108.0,104.0,13.3,1505.3,324.6,-0.7,1.8,2470.347,13.32,0.064,121.0
2020-09-20T01:40:02,42.805,6.029,0.036,-0.024,-0.008,108.0,108.0,103.0,13.4,1505.3,328.2,-0.7,1.8,2470.323,13.32,0.043,123.7
2020-09-20T01:43:02,42.805,6.029,0.04,-0.032,-0.006,106.0,107.0,103.0,13.4,1505.3,324.2,-0.7,1.9,2470.341,13.32,0.051,128.7
2020-09-20T01:46:02,42.805,6.029,0.04,-0.038,-0.025,104.0,108.0,103.0,13.3,1505.3,324.1,-0.7,1.8,2470.39,13.32,0.055,133.5
2020-09-20T01:49:02,42.805,6.029,0.04,-0.019,-0.01,107.0,106.0,104.0,13.4,1505.3,325.9,-0.7,1.8,2470.357,13.32,0.044,115.4
2020-09-20T01:52:02,42.805,6.029,0.029,-0.032,0.003,105.0,107.0,103.0,13.4,1505.3,323.9,-0.7,1.8,2470.35,13.32,0.043,137.8
2020-09-20T01:55:02,42.805,6.029,0.034,-0.036,-0.002,105.0,107.0,103.0,13.4,1505.3,327.5,-0.7,1.8,2470.354,13.32,0.049,136.6
2020-09-20T01:58:03,42.805,6.029,0.022,-0.02,-0.005,106.0,107.0,104.0,13.3,1505.3,324.6,-0.7,1.9,2470.304,13.32,0.029,132.3
2020-09-20T02:04:02,42.805,6.029,0.012,-0.033,-0.023,107.0,106.0,103.0,13.4,1505.2,323.2,-0.8,1.8,2470.377,13.3,0.035,160.0
2020-09-20T02:07:02,42.805,6.029,0.051,-0.017,-0.012,108.0,107.0,103.0,13.4,1505.3,324.2,-0.7,1.9,2470.335,13.31,0.053,108.4
2020-09-20T02:10:02,42.805,6.029,0.014,-0.034,-0.009,107.0,108.0,105.0,13.3,1505.3,328.6,-0.7,1.8,2470.356,13.32,0.036,157.6
2020-09-20T02:13:03,42.805,6.029,0.041,-0.038,0.01,105.0,108.0,104.0,13.3,1505.3,325.6,-0.7,1.8,2470.373,13.32,0.055,132.8
2020-09-20T02:16:03,42.805,6.029,0.038,-0.041,0.014,107.0,107.0,103.0,13.3,1505.3,324.2,-0.7,1.8,2470.348,13.32,0.055,137.2
2020-09-20T02:19:02,42.805,6.029,0.021,-0.039,-0.024,106.0,108.0,103.0,13.3,1505.3,327.9,-0.7,1.9,2470.387,13.32,0.044,151.7
2020-09-20T02:22:02,42.805,6.029,0.041,-0.023,0.006,106.0,107.0,104.0,13.4,1505.3,322.7,-0.7,1.8,2470.317,13.32,0.047,119.3
2020-09-20T02:25:03,42.805,6.029,0.041,-0.048,0.014,108.0,106.0,103.0,13.4,1505.3,326.0,-0.7,1.8,2470.283,13.32,0.063,139.5
2020-09-20T02:28:03,42.805,6.029,0.029,-0.029,-0.005,108.0,108.0,105.0,13.3,1505.3,324.7,-0.7,1.8,2470.268,13.32,0.041,135.0
2020-09-20T02:31:03,42.805,6.029,0.029,-0.029,0.017,107.0,107.0,103.0,13.4,1505.3,327.9,-0.7,1.9,2470.316,13.32,0.041,135.0
2020-09-20T02:34:03,42.805,6.029,0.027,-0.05,-0.014,107.0,107.0,103.0,13.3,1505.3,323.6,-0.7,1.8,2470.286,13.32,0.056,151.6
2020-09-20T02:37:02,42.805,6.029,0.022,-0.023,0.036,107.0,108.0,103.0,13.4,1505.3,324.2,-0.7,1.8,2470.319,13.32,0.031,136.3
2020-09-20T02:40:03,42.805,6.029,0.027,-0.041,-0.008,107.0,107.0,103.0,13.4,1505.3,327.7,-0.7,1.8,2470.28,13.32,0.049,146.6
2020-09-20T02:43:03,42.805,6.029,0.01,-0.041,0.0,106.0,108.0,103.0,13.4,1505.3,326.7,-0.7,1.8,2470.336,13.32,0.042,166.3
2020-09-20T02:46:02,42.805,6.029,0.031,-0.056,0.01,106.0,106.0,104.0,13.4,1505.3,323.1,-0.7,1.8,2470.316,13.32,0.064,151.0
2020-09-20T02:49:02,42.805,6.029,0.043,-0.036,0.012,106.0,107.0,104.0,13.4,1505.3,322.8,-0.7,1.8,2470.296,13.32,0.056,129.9
2020-09-20T02:52:03,42.805,6.029,0.039,-0.042,-0.008,105.0,107.0,104.0,13.3,1505.3,327.2,-0.7,1.8,2470.297,13.32,0.057,137.1
2020-09-20T02:55:02,42.805,6.029,0.036,-0.016,-0.027,105.0,107.0,104.0,13.4,1505.3,326.6,-0.7,1.8,2470.266,13.32,0.039,114.0
2020-09-20T02:58:03,42.805,6.029,0.035,-0.033,0.017,106.0,107.0,104.0,13.4,1505.3,325.2,-0.7,1.9,2470.255,13.32,0.048,133.3
2020-09-20T03:04:03,42.805,6.029,0.009,-0.019,0.015,105.0,106.0,104.0,13.4,1505.2,326.5,-0.7,1.8,2470.343,13.3,0.021,154.7
2020-09-20T03:07:02,42.805,6.029,0.036,-0.017,0.013,106.0,107.0,103.0,13.4,1505.3,325.1,-0.7,1.8,2470.312,13.31,0.039,115.3
2020-09-20T03:10:02,42.805,6.029,0.002,-0.043,0.013,106.0,107.0,103.0,13.3,1505.3,326.3,-0.7,1.8,2470.289,13.32,0.043,177.3
2020-09-20T03:13:03,42.805,6.029,0.022,-0.026,-0.018,106.0,109.0,104.0,13.4,1505.3,325.8,-0.7,1.8,2470.305,13.32,0.034,139.8
2020-09-20T03:16:02,42.805,6.029,0.049,-0.024,0.018,107.0,107.0,104.0,13.4,1505.3,326.5,-0.7,1.9,2470.294,13.32,0.054,116.1
2020-09-20T03:19:03,42.805,6.029,0.025,-0.028,0.007,107.0,107.0,103.0,13.4,1505.3,322.8,-0.7,1.8,2470.31,13.32,0.037,138.2
2020-09-20T03:22:03,42.805,6.029,0.034,-0.019,0.015,107.0,107.0,102.0,13.3,1505.3,327.8,-0.7,1.8,2470.286,13.32,0.038,119.2
2020-09-20T03:25:02,42.805,6.029,0.036,-0.037,0.001,105.0,107.0,104.0,13.4,1505.3,326.3,-0.7,1.8,2470.263,13.32,0.051,135.8
2020-09-20T03:28:02,42.805,6.029,0.054,-0.033,0.008,108.0,106.0,104.0,13.4,1505.3,326.3,-0.7,1.8,2470.279,13.32,0.063,121.4
2020-09-20T03:31:03,42.805,6.029,0.048,-0.022,0.026,106.0,107.0,104.0,13.4,1505.3,325.1,-0.7,1.8,2470.287,13.32,0.052,114.6
2020-09-20T03:34:02,42.805,6.029,0.019,-0.036,-0.002,105.0,108.0,104.0,13.4,1505.3,327.8,-0.7,1.8,2470.327,13.32,0.04,152.2
2020-09-20T03:37:02,42.805,6.029,0.028,-0.027,-0.009,106.0,106.0,103.0,13.3,1505.3,323.3,-0.7,1.8,2470.233,13.32,0.038,134.0
2020-09-20T03:40:03,42.805,6.029,0.025,-0.03,0.002,106.0,108.0,103.0,13.4,1505.3,326.3,-0.7,1.9,2470.271,13.32,0.039,140.2
2020-09-20T03:43:02,42.805,6.029,0.029,-0.026,-0.012,106.0,107.0,103.0,13.4,1505.3,324.3,-0.7,1.8,2470.252,13.32,0.038,131.9
2020-09-20T03:46:03,42.805,6.029,0.019,-0.027,-0.014,105.0,108.0,103.0,13.4,1505.3,326.6,-0.7,1.8,2470.271,13.32,0.033,144.9
2020-09-20T03:49:03,42.805,6.029,0.052,-0.039,0.017,106.0,106.0,104.0,13.4,1505.3,324.1,-0.7,1.8,2470.258,13.32,0.064,126.9
2020-09-20T03:52:02,42.805,6.029,0.041,-0.041,0.004,106.0,107.0,103.0,13.3,1505.3,324.0,-0.7,1.8,2470.247,13.32,0.057,135.0
2020-09-20T03:55:03,42.805,6.029,0.019,-0.031,0.016,107.0,107.0,103.0,13.4,1505.3,326.6,-0.7,1.8,2470.227,13.32,0.036,148.5
2020-09-20T03:58:03,42.805,6.029,0.043,-0.015,0.033,106.0,105.0,103.0,13.4,1505.3,327.2,-0.7,1.8,2470.293,13.32,0.045,109.2
2020-09-20T04:04:02,42.805,6.029,0.032,-0.024,0.031,105.0,107.0,103.0,13.4,1505.2,328.1,-0.8,1.8,2470.317,13.3,0.04,126.9
2020-09-20T04:07:02,42.805,6.029,0.037,-0.038,0.018,106.0,106.0,104.0,13.4,1505.3,324.9,-0.7,1.9,2470.302,13.31,0.053,135.8
2020-09-20T04:10:03,42.805,6.029,0.031,-0.032,0.0,105.0,107.0,103.0,13.4,1505.3,328.5,-0.7,1.8,2470.315,13.32,0.044,135.9
2020-09-20T04:13:03,42.805,6.029,0.023,-0.025,-0.008,105.0,107.0,104.0,13.3,1505.3,325.7,-0.7,1.8,2470.284,13.32,0.033,137.4
2020-09-20T04:16:03,42.805,6.029,0.017,-0.032,0.028,105.0,108.0,103.0,13.4,1505.3,324.6,-0.7,1.8,2470.315,13.32,0.036,152.0
2020-09-20T04:19:03,42.805,6.029,0.027,-0.036,0.004,107.0,106.0,103.0,13.3,1505.3,326.9,-0.7,1.9,2470.291,13.32,0.045,143.1
2020-09-20T04:22:02,42.805,6.029,0.037,-0.024,0.001,107.0,107.0,103.0,13.3,1505.3,322.8,-0.7,1.8,2470.328,13.32,0.044,123.0
2020-09-20T04:25:03,42.805,6.029,0.033,-0.043,0.017,105.0,107.0,103.0,13.4,1505.3,326.5,-0.6,1.8,2470.259,13.32,0.054,142.5
2020-09-20T04:28:02,42.805,6.029,0.033,-0.038,-0.003,106.0,106.0,103.0,13.3,1505.3,324.5,-0.7,1.8,2470.279,13.32,0.05,139.0
2020-09-20T04:31:03,42.805,6.029,0.02,-0.028,-0.014,106.0,106.0,104.0,13.4,1505.3,328.0,-0.7,1.8,2470.286,13.32,0.034,144.5
2020-09-20T04:34:03,42.805,6.029,0.009,-0.049,0.017,107.0,107.0,104.0,13.4,1505.3,323.3,-0.7,1.8,2470.271,13.32,0.049,169.6
2020-09-20T04:37:02,42.805,6.029,0.04,-0.026,0.017,106.0,107.0,102.0,13.4,1505.3,323.5,-0.7,1.8,2470.303,13.32,0.047,123.0
2020-09-20T04:40:03,42.805,6.029,0.024,-0.039,-0.049,107.0,107.0,103.0,13.4,1505.3,326.8,-0.7,1.9,2470.291,13.32,0.045,148.4
2020-09-20T04:43:02,42.805,6.029,0.028,-0.043,0.011,106.0,107.0,104.0,13.4,1505.3,324.7,-0.7,1.8,2470.3,13.32,0.051,146.9
2020-09-20T04:46:02,42.805,6.029,0.04,-0.021,0.005,106.0,107.0,104.0,13.4,1505.3,324.6,-0.7,1.8,2470.289,13.32,0.045,117.7
2020-09-20T04:49:03,42.805,6.029,0.018,-0.031,-0.022,107.0,106.0,103.0,13.4,1505.3,324.8,-0.6,1.8,2470.296,13.32,0.035,149.9
2020-09-20T04:52:02,42.805,6.029,0.032,-0.045,0.011,107.0,106.0,103.0,13.4,1505.3,324.1,-0.7,1.8,2470.319,13.32,0.055,144.6
2020-09-20T04:55:03,42.805,6.029,0.03,-0.027,-0.009,107.0,108.0,103.0,13.4,1505.3,325.9,-0.6,1.8,2470.313,13.32,0.04,132.0
2020-09-20T04:58:03,42.805,6.029,0.037,-0.023,0.003,106.0,108.0,103.0,13.4,1505.3,327.2,-0.7,1.8,2470.291,13.32,0.043,121.9
2020-09-20T05:04:03,42.805,6.029,0.013,-0.049,0.022,105.0,107.0,102.0,13.3,1505.2,325.3,-0.7,1.8,2470.325,13.3,0.05,165.1
2020-09-20T05:07:03,42.805,6.029,0.023,-0.037,-0.023,107.0,107.0,103.0,13.4,1505.3,324.1,-0.7,1.8,2470.363,13.31,0.043,148.1
2020-09-20T05:10:03,42.805,6.029,0.034,-0.028,0.023,104.0,107.0,104.0,13.4,1505.3,323.7,-0.7,1.8,2470.346,13.32,0.044,129.5
2020-09-20T05:13:03,42.805,6.029,0.034,-0.041,0.001,106.0,106.0,103.0,13.4,1505.3,325.5,-0.7,1.8,2470.29,13.32,0.053,140.3
2020-09-20T05:16:03,42.805,6.029,0.031,-0.026,-0.012,106.0,107.0,103.0,13.4,1505.3,326.3,-0.7,1.8,2470.353,13.32,0.04,130.0
2020-09-20T05:19:03,42.805,6.029,0.041,-0.04,-0.007,106.0,106.0,104.0,13.4,1505.3,324.3,-0.7,1.9,2470.341,13.32,0.057,134.3
2020-09-20T05:22:02,42.805,6.029,0.031,-0.035,-0.024,106.0,108.0,103.0,13.4,1505.3,324.8,-0.7,1.8,2470.316,13.32,0.046,138.5
2020-09-20T05:25:03,42.805,6.029,0.043,-0.027,0.038,106.0,108.0,104.0,13.4,1505.3,325.3,-0.7,1.8,2470.371,13.32,0.05,122.1
2020-09-20T05:28:03,42.805,6.029,0.051,-0.046,-0.002,104.0,107.0,104.0,13.4,1505.3,327.1,-0.7,1.9,2470.313,13.32,0.068,132.0
2020-09-20T05:31:03,42.805,6.029,0.033,-0.038,-0.017,106.0,107.0,104.0,13.4,1505.3,327.7,-0.7,1.8,2470.354,13.32,0.05,139.0
2020-09-20T05:34:03,42.805,6.029,0.046,-0.044,0.0,105.0,107.0,104.0,13.3,1505.3,324.2,-0.7,1.8,2470.373,13.32,0.063,133.7
2020-09-20T05:37:02,42.805,6.029,0.041,-0.023,-0.014,106.0,106.0,103.0,13.4,1505.3,324.0,-0.7,1.8,2470.37,13.32,0.047,119.3
2020-09-20T05:40:02,42.805,6.029,0.018,-0.027,-0.004,105.0,107.0,104.0,13.3,1505.3,325.4,-0.7,1.8,2470.373,13.32,0.032,146.3
2020-09-20T05:43:02,42.805,6.029,0.027,-0.026,-0.006,106.0,107.0,103.0,13.4,1505.3,323.3,-0.7,1.8,2470.346,13.32,0.037,133.9
2020-09-20T05:46:02,42.805,6.029,0.038,-0.031,-0.003,107.0,107.0,104.0,13.3,1505.3,324.2,-0.7,1.8,2470.37,13.32,0.049,129.2
2020-09-20T05:49:02,42.805,6.029,0.019,-0.043,0.012,106.0,106.0,103.0,13.4,1505.3,326.5,-0.7,1.8,2470.322,13.32,0.047,156.2
2020-09-20T05:52:02,42.805,6.029,0.017,-0.028,-0.011,106.0,106.0,104.0,13.3,1505.3,325.0,-0.7,1.8,2470.311,13.32,0.032,148.7
2020-09-20T05:55:02,42.805,6.029,0.039,-0.039,-0.007,106.0,106.0,103.0,13.4,1505.3,324.2,-0.7,1.8,2470.389,13.32,0.055,135.0
2020-09-20T05:58:02,42.805,6.029,0.024,-0.047,0.014,106.0,108.0,103.0,13.3,1505.3,328.1,-0.7,1.8,2470.339,13.32,0.052,153.0
2020-09-20T06:04:03,42.805,6.029,0.035,-0.04,-0.003,105.0,107.0,103.0,13.3,1505.2,325.3,-0.8,1.8,2470.423,13.3,0.053,138.8
2020-09-20T06:07:02,42.805,6.029,0.039,-0.029,0.021,105.0,109.0,103.0,13.4,1505.3,327.7,-0.7,1.8,2470.452,13.31,0.048,126.6
2020-09-20T06:10:02,42.805,6.029,0.046,-0.03,0.006,107.0,106.0,102.0,13.4,1505.3,325.1,-0.7,1.8,2470.403,13.32,0.054,123.1
2020-09-20T06:13:03,42.805,6.029,0.033,-0.02,0.002,108.0,105.0,104.0,13.4,1505.3,325.6,-0.7,1.8,2470.385,13.32,0.038,121.2
2020-09-20T06:16:03,42.805,6.029,0.007,-0.039,-0.021,106.0,106.0,103.0,13.4,1505.3,324.3,-0.7,1.8,2470.436,13.32,0.039,169.8
2020-09-20T06:19:03,42.805,6.029,0.02,-0.033,-0.02,107.0,106.0,103.0,13.3,1505.3,327.5,-0.7,1.8,2470.446,13.32,0.038,148.8
2020-09-20T06:22:03,42.805,6.029,0.022,-0.033,0.008,108.0,108.0,103.0,13.4,1505.3,327.7,-0.7,1.8,2470.392,13.32,0.039,146.3
2020-09-20T06:25:03,42.805,6.029,0.034,-0.044,-0.024,107.0,108.0,103.0,13.4,1505.3,323.8,-0.7,1.8,2470.433,13.32,0.055,142.3
2020-09-20T06:28:02,42.805,6.029,0.058,-0.035,0.004,108.0,106.0,103.0,13.4,1505.3,324.3,-0.7,1.8,2470.388,13.32,0.067,121.1
2020-09-20T06:31:03,42.805,6.029,0.041,-0.044,0.01,107.0,107.0,104.0,13.4,1505.3,327.0,-0.7,1.8,2470.398,13.32,0.06,137.0
2020-09-20T06:34:03,42.805,6.029,0.019,-0.038,0.016,105.0,106.0,103.0,13.4,1505.3,324.6,-0.7,1.8,2470.4,13.32,0.042,153.4
2020-09-20T06:37:02,42.805,6.029,0.046,-0.027,0.003,106.0,106.0,103.0,13.3,1505.3,325.0,-0.7,1.8,2470.419,13.32,0.053,120.4
2020-09-20T06:40:02,42.805,6.029,0.053,-0.022,0.001,108.0,107.0,102.0,13.3,1505.3,327.1,-0.7,1.9,2470.42,13.32,0.057,112.5
2020-09-20T06:43:03,42.805,6.029,0.027,-0.035,-0.01,107.0,106.0,103.0,13.4,1505.3,326.1,-0.7,1.8,2470.424,13.32,0.044,142.3
2020-09-20T06:46:03,42.805,6.029,0.051,-0.038,0.013,107.0,106.0,103.0,13.3,1505.3,324.1,-0.7,1.8,2470.485,13.32,0.063,126.7
2020-09-20T06:49:03,42.805,6.029,0.025,-0.033,0.012,107.0,107.0,104.0,13.3,1505.3,326.6,-0.7,1.8,2470.434,13.32,0.041,142.8
2020-09-20T06:52:02,42.805,6.029,0.025,-0.039,0.01,106.0,106.0,103.0,13.3,1505.3,328.1,-0.7,1.8,2470.431,13.32,0.046,147.3
2020-09-20T06:55:03,42.805,6.029,0.014,-0.037,0.029,106.0,106.0,103.0,13.4,1505.3,324.1,-0.7,1.8,2470.438,13.32,0.039,159.3
2020-09-20T06:58:03,42.805,6.029,0.019,-0.029,-0.016,105.0,107.0,104.0,13.4,1505.3,323.6,-0.7,1.8,2470.415,13.32,0.034,146.8
2020-09-20T07:04:03,42.805,6.029,0.046,-0.033,-0.003,105.0,107.0,103.0,13.4,1505.2,326.6,-0.7,1.8,2470.489,13.3,0.056,125.7
2020-09-20T07:07:03,42.805,6.029,0.061,-0.021,0.018,105.0,106.0,104.0,13.4,1505.3,327.6,-0.7,1.8,2470.466,13.31,0.064,109.0
2020-09-20T07:10:03,42.805,6.029,0.029,-0.022,0.003,106.0,108.0,104.0,13.4,1505.3,323.9,-0.7,1.9,2470.481,13.32,0.036,127.2
2020-09-20T07:13:02,42.805,6.029,0.037,-0.033,-0.008,107.0,107.0,104.0,13.4,1505.3,326.9,-0.7,1.8,2470.46,13.32,0.049,131.7
2020-09-20T07:16:03,42.805,6.029,0.023,-0.041,-0.016,106.0,107.0,104.0,13.4,1505.3,324.8,-0.7,1.9,2470.484,13.32,0.047,150.7
2020-09-20T07:19:02,42.805,6.029,0.05,-0.018,0.007,107.0,107.0,103.0,13.4,1505.3,323.3,-0.7,1.8,2470.472,13.32,0.053,109.8
2020-09-20T07:22:02,42.805,6.029,0.044,-0.026,0.004,106.0,107.0,103.0,13.4,1505.3,328.0,-0.7,1.9,2470.492,13.32,0.051,120.6
2020-09-20T07:25:02,42.805,6.029,0.013,-0.035,-0.003,106.0,107.0,103.0,13.4,1505.3,323.6,-0.7,1.8,2470.435,13.32,0.037,159.6
2020-09-20T07:28:03,42.805,6.029,0.041,-0.033,-0.005,105.0,107.0,103.0,13.4,1505.3,324.7,-0.7,1.8,2470.455,13.32,0.052,128.8
2020-09-20T07:31:03,42.805,6.029,0.031,-0.044,-0.005,105.0,107.0,103.0,13.3,1505.3,328.3,-0.7,1.9,2470.466,13.32,0.053,144.8
2020-09-20T07:34:03,42.805,6.029,0.024,-0.031,-0.007,106.0,107.0,104.0,13.3,1505.3,323.4,-0.7,1.8,2470.485,13.32,0.039,142.3
2020-09-20T07:37:02,42.805,6.029,0.034,-0.048,-0.017,106.0,106.0,103.0,13.3,1505.3,322.9,-0.7,1.8,2470.516,13.32,0.058,144.7
2020-09-20T07:40:03,42.805,6.029,0.035,-0.035,-0.019,106.0,107.0,104.0,13.4,1505.3,324.0,-0.7,1.8,2470.475,13.32,0.049,135.0
2020-09-20T07:43:03,42.805,6.029,0.02,-0.056,0.001,106.0,107.0,104.0,13.3,1505.3,327.1,-0.7,1.8,2470.503,13.32,0.059,160.4
2020-09-20T07:46:02,42.805,6.029,0.026,-0.047,-0.004,105.0,108.0,103.0,13.4,1505.3,324.7,-0.7,1.8,2470.48,13.32,0.053,151.0
2020-09-20T07:49:03,42.805,6.029,0.046,-0.047,0.003,106.0,106.0,102.0,13.4,1505.3,326.4,-0.7,1.8,2470.493,13.32,0.065,135.6
2020-09-20T07:52:02,42.805,6.029,0.055,-0.044,0.0,105.0,108.0,103.0,13.4,1505.3,323.2,-0.7,1.8,2470.509,13.32,0.07,128.7
2020-09-20T07:55:03,42.805,6.029,0.012,-0.035,0.015,106.0,107.0,104.0,13.3,1505.3,326.3,-0.7,1.8,2470.487,13.32,0.037,161.1
2020-09-20T07:58:02,42.805,6.029,0.063,-0.038,0.013,106.0,106.0,103.0,13.4,1505.3,323.3,-0.7,1.8,2470.465,13.32,0.073,121.1
2020-09-20T08:04:02,42.805,6.029,0.018,-0.026,-0.007,107.0,108.0,102.0,13.4,1505.2,323.5,-0.7,1.8,2470.544,13.3,0.031,145.3
2020-09-20T08:07:02,42.805,6.029,0.0,-0.041,-0.01,106.0,107.0,103.0,13.4,1505.3,326.7,-0.7,1.8,2470.494,13.31,0.041,180.0
2020-09-20T08:10:02,42.805,6.029,0.004,-0.032,-0.014,107.0,107.0,104.0,13.4,1505.3,328.3,-0.7,1.9,2470.491,13.32,0.032,172.9
2020-09-20T08:13:02,42.805,6.029,0.009,-0.026,-0.004,104.0,107.0,105.0,13.4,1505.3,326.3,-0.6,1.8,2470.529,13.32,0.027,160.9
2020-09-20T08:16:02,42.805,6.029,0.009,-0.03,-0.005,105.0,106.0,104.0,13.3,1505.3,326.5,-0.7,1.8,2470.569,13.32,0.031,163.3
2020-09-20T08:19:03,42.805,6.029,0.015,-0.047,-0.023,105.0,106.0,103.0,13.4,1505.3,323.8,-0.7,1.8,2470.513,13.32,0.049,162.3
2020-09-20T08:22:03,42.805,6.029,0.02,-0.04,-0.052,106.0,107.0,102.0,13.4,1505.3,326.9,-0.7,1.8,2470.559,13.32,0.044,153.4
2020-09-20T08:25:03,42.805,6.029,0.055,-0.044,-0.019,105.0,106.0,103.0,13.4,1505.3,326.7,-0.7,1.9,2470.52,13.32,0.07,128.7
2020-09-20T08:28:03,42.805,6.029,0.037,-0.045,-0.01,104.0,106.0,104.0,13.4,1505.3,325.1,-0.7,1.8,2470.516,13.32,0.058,140.6
2020-09-20T08:31:04,42.805,6.029,0.03,-0.046,-0.013,106.0,107.0,102.0,13.4,1505.3,327.8,-0.7,1.8,2470.497,13.32,0.054,146.9
2020-09-20T08:34:02,42.805,6.029,0.007,-0.025,0.009,106.0,106.0,103.0,13.3,1505.3,326.3,-0.7,1.8,2470.519,13.32,0.025,164.4
2020-09-20T08:37:02,42.805,6.029,0.04,-0.05,-0.002,106.0,107.0,103.0,13.4,1505.3,326.4,-0.7,1.8,2470.502,13.32,0.064,141.3
2020-09-20T08:40:03,42.805,6.029,0.033,-0.041,0.005,106.0,108.0,104.0,13.3,1505.3,323.7,-0.7,1.9,2470.534,13.32,0.052,141.2
2020-09-20T08:43:02,42.805,6.029,0.042,-0.043,-0.029,106.0,106.0,103.0,13.3,1505.3,325.9,-0.7,1.8,2470.564,13.32,0.06,135.7
2020-09-20T08:46:02,42.805,6.029,0.029,-0.019,-0.02,105.0,107.0,103.0,13.4,1505.3,326.0,-0.7,1.8,2470.53,13.32,0.034,123.2
2020-09-20T08:49:03,42.805,6.029,0.038,-0.044,-0.011,105.0,106.0,103.0,13.4,1505.3,324.0,-0.7,1.8,2470.505,13.32,0.058,139.2
2020-09-20T08:52:02,42.805,6.029,0.049,-0.041,0.008,106.0,106.0,103.0,13.4,1505.3,326.8,-0.7,1.8,2470.547,13.32,0.063,129.9
2020-09-20T08:55:03,42.805,6.029,0.015,-0.019,0.003,107.0,106.0,103.0,13.4,1505.3,325.5,-0.7,1.9,2470.51,13.32,0.024,141.7
2020-09-20T08:58:02,42.805,6.029,0.029,-0.043,-0.008,107.0,107.0,103.0,13.3,1505.3,327.0,-0.7,1.8,2470.517,13.32,0.051,146.0
2020-09-20T09:04:02,42.805,6.029,0.043,-0.033,0.006,105.0,106.0,104.0,13.4,1505.2,322.8,-0.7,1.8,2470.541,13.3,0.054,127.5
2020-09-20T09:07:02,42.805,6.029,0.044,-0.044,-0.005,104.0,107.0,102.0,13.4,1505.3,325.8,-0.7,1.8,2470.52,13.31,0.062,135.0
2020-09-20T09:10:02,42.805,6.029,0.005,-0.045,0.0,106.0,106.0,104.0,13.4,1505.3,326.8,-0.7,1.8,2470.524,13.32,0.045,173.7
2020-09-20T09:13:03,42.805,6.029,0.031,-0.047,-0.004,105.0,106.0,104.0,13.4,1505.3,326.4,-0.7,1.8,2470.56,13.32,0.056,146.6
2020-09-20T09:16:02,42.805,6.029,0.016,-0.026,-0.028,107.0,106.0,103.0,13.4,1505.3,324.1,-0.7,1.8,2470.526,13.32,0.03,148.4
2020-09-20T09:19:02,42.805,6.029,0.014,-0.042,-0.018,106.0,107.0,103.0,13.4,1505.3,322.8,-0.7,1.8,2470.53,13.32,0.044,161.6
2020-09-20T09:22:02,42.805,6.029,0.009,-0.02,-0.029,107.0,108.0,102.0,13.3,1505.3,328.2,-0.7,1.8,2470.479,13.32,0.021,155.8
2020-09-20T09:25:02,42.805,6.029,0.036,-0.036,0.009,106.0,106.0,103.0,13.3,1505.3,324.9,-0.7,1.8,2470.511,13.32,0.05,135.0
2020-09-20T09:28:03,42.805,6.029,0.03,-0.041,0.017,107.0,107.0,103.0,13.3,1505.3,326.8,-0.7,1.8,2470.542,13.32,0.05,143.8
2020-09-20T09:31:02,42.805,6.029,0.012,-0.02,0.001,105.0,106.0,103.0,13.4,1505.3,325.3,-0.7,1.8,2470.516,13.32,0.023,149.0
2020-09-20T09:34:03,42.805,6.029,0.022,-0.041,0.002,105.0,106.0,103.0,13.4,1505.3,326.6,-0.7,1.8,2470.497,13.32,0.046,151.8
2020-09-20T09:37:02,42.805,6.029,0.034,-0.026,0.006,106.0,107.0,103.0,13.3,1505.3,326.3,-0.7,1.8,2470.54,13.32,0.042,127.4
2020-09-20T09:40:05,42.805,6.029,0.032,-0.044,0.002,104.0,108.0,104.0,13.4,1505.3,328.1,-0.7,1.8,2470.522,13.32,0.054,144.0
2020-09-20T09:43:03,42.805,6.029,0.029,-0.019,-0.004,107.0,107.0,103.0,13.4,1505.3,324.6,-0.7,1.8,2470.499,13.32,0.034,123.2
2020-09-20T09:46:03,42.805,6.029,0.026,-0.05,-0.018,107.0,107.0,102.0,13.4,1505.3,325.5,-0.7,1.8,2470.513,13.32,0.056,152.5
2020-09-20T09:49:03,42.805,6.029,0.041,-0.037,-0.036,106.0,106.0,102.0,13.4,1505.3,323.8,-0.7,1.8,2470.508,13.32,0.055,132.1
2020-09-20T09:52:02,42.805,6.029,0.021,-0.027,-0.002,105.0,108.0,104.0,13.4,1505.3,323.8,-0.7,1.9,2470.495,13.32,0.034,142.1
2020-09-20T09:55:02,42.805,6.029,0.021,-0.019,-0.006,107.0,107.0,103.0,13.4,1505.3,327.2,-0.7,1.8,2470.477,13.32,0.028,132.1